Tracking 25710 objects as of 5-Jul-2022
HD Live streaming from Space Station
objects crossing your sky now

FENGYUN 1C DEB

Track FENGYUN 1C DEB now!
10-day predictions


NORAD ID: 31001
Int'l Code: 1999-025BCT
Perigee: 663.8 km
Apogee: 894.1 km
Inclination: 99.2 °
Period: 100.3 minutes
Semi major axis: 7149 km
RCS: 0.0111 m2 (small)
Launch date: May 10, 1999
Source: People's Republic of China (PRC)
Launch site: Taiyaun Space Center, China (TSC)

Note: This is SATELLITE DEBRIS
aabbcc
Your satellite tracking list
Your tracking list is empty




NASA's NSSDC Master Catalog

Two Line Element Set (TLE):
1 31001U 99025BCT 22185.74007947  .00000614  00000-0  19935-3 0  9997
2 31001  99.2434 298.1176 0161071 224.6326 134.1798 14.35972133801261
Source of the keplerian elements: AFSPC